Location: Warszawa
(52.2322°N, 21.0083°E)
Time: 19:50:42
(UTC+02:00)

ISS - Pass Details

Date: 24 March 2019
Orbit: 408 x 410 km, 51.6° (Epoch: 26 April)

Event Time Altitude Azimuth Distance (km) Brightness Sun altitude
Rises 19:27:23 0° 234° (SW) 2,330 0.5 -14.5°
Reaches altitude 10° 19:29:32 10° 226° (SW) 1,471 -0.7 -14.8°
Maximum altitude 19:32:39 39° 156° (SSE) 626 -3.3 -15.2°
Enters shadow 19:33:13 36° 129° (SE) 672 -3.3 -15.3°
